Location: G�yn�k
(36.6721°N, 30.5542°E)
Time: 06:06:48
(UTC+00:00)

Shenzhou-11 Module - Pass Details

Date: 07 June 2020
Orbit: 265 x 286 km, 42.8° (Epoch: 05 July)

Event Time Altitude Azimuth Distance (km) Brightness Sun altitude
Exits shadow 00:55:08 11° 320° (NW) 997 4.2 -17.2°
Maximum altitude 00:56:41 18° 5° (N) 740 4.1 -17.0°
Drops below altitude 10° 00:58:32 10° 55° (NE) 1,092 5.6 -16.7°
Sets 01:00:41 0° 74° (ENE) 1,877 6.6 -16.4°
